Location: Austin, TX
(30.3000°N, 97.7500°W)
Time: 00:36:43
(UTC-05:00)

Daily predictions for brighter satellites

Satellite Brightness Start Highest point End
(mag) Time Altitude Azimuth Time Altitude Azimuth Time Altitude Azimuth
SL-16 R/B 3.9 03:44:06 34° NE 03:44:06 34° NE 03:48:24 10° N
CZ-2D R/B 4.0 03:57:07 10° NNE 03:59:19 25° NNE 03:59:19 25° NNE
Centaur D-1A AC-31 2.9 03:31:48 10° WSW 04:08:15 76° SSE 04:13:11 10° E
Okean O Rocket 3.9 04:13:44 10° NE 04:16:12 21° ENE 04:16:12 21° ENE
Resurs 1-4 Rocket 3.7 04:13:39 10° NNE 04:16:11 29° N 04:16:11 29° N
Centaur D-1AR AC-36 4.3 04:21:34 31° SSE 04:21:34 31° SSE 04:25:16 10° ESE
USA 234 3.3 04:21:09 10° NE 04:27:04 69° N 04:27:04 69° N
IRS-1C Rocket 4.4 04:41:35 10° NNE 04:46:49 62° ESE 04:47:01 61° ESE
ARIANE 5 R/B 4.4 04:43:06 10° N 04:44:58 20° NNW 04:44:58 20° NNW
CENTAUR R/B 4.0 04:48:35 23° NW 04:48:35 23° NW 04:53:07 10° N
Cosmos 2285 Rocket 4.0 04:41:50 10° NNW 04:48:16 82° ENE 04:52:12 25° SSE
Okean 2 Rocket 3.9 04:57:49 10° N 05:02:13 51° E 05:04:21 28° SE
CZ-4B R/B 3.2 05:00:28 10° NNE 05:05:45 71° ESE 05:07:22 45° S
MOZ.5/SAFIR/RUBIN 5/SL-8 4.0 05:05:42 31° SSE 05:07:50 68° ENE 05:12:27 10° N
SL-08 ROCKET BODY 4.3 05:02:18 10° NNW 05:08:20 66° W 05:09:18 57° SW
Cosmos 1782 Rocket 3.6 05:05:16 10° N 05:09:13 72° NNE 05:09:13 72° NNE
Nadezhda 1 Rocket 4.0 05:12:05 54° WSW 05:12:39 55° W 05:18:52 10° N
Cosmos 2082 Rocket 3.5 05:09:18 13° SSE 05:13:54 37° ESE 05:19:07 10° NE
CZ-4B DEB 4.2 05:08:33 10° NNE 05:14:01 79° ESE 05:16:25 35° S
Cosmos 1656 Rocket 3.5 05:11:35 10° NNW 05:16:55 63° WSW 05:22:15 10° S
Cosmos 1833 Rocket 4.3 05:13:45 10° SSE 05:18:38 32° ESE 05:23:32 10° NE
CZ-3 R/B 4.2 04:25:11 10° WNW 05:18:48 57° SW 05:29:57 10° SE
Cosmos 1954 Rocket 3.9 05:23:59 52° SW 05:25:07 71° WNW 05:30:19 10° N
SL-16 R/B 4.0 05:29:12 19° WNW 05:29:12 19° WNW 05:31:25 10° NW
USA 229 DEB 4.3 05:21:27 16° S 05:26:52 54° ESE 05:33:35 10° NE
USA 229 4.3 05:21:30 16° S 05:26:58 53° ESE 05:33:40 10° NE
Cosmos 1782 4.0 05:26:56 10° SSE 05:30:41 43° E 05:34:32 10° NNE
Thor Agena Rocket 3.8 05:28:57 10° SSE 05:34:02 68° ENE 05:39:13 10° N
Atlas Centaur 2 1.2 05:36:58 53° W 05:37:54 88° N 05:42:35 10° E
Cosmos 2181 Rocket 4.0 05:32:48 10° S 05:39:14 81° W 05:45:39 10° N
CZ-2D R/B 4.1 05:39:46 10° NW 05:40:39 11° NW 05:40:39 11° NW
GPS 2-05 Rocket1 4.2 05:44:08 24° NW 05:45:22 32° N 05:48:26 10° ENE
SeaSat 1 2.4 05:44:06 10° SSE 05:49:01 88° WSW 05:53:58 10° NNW
CZ-4B R/B 3.5 05:46:47 10° N 05:50:12 32° WNW 05:50:20 32° W
Cosmos 1850 Rocket 3.9 05:47:48 14° SSW 05:52:18 84° WNW 05:57:39 10° NNE
CZ-2C R/B 4.1 05:50:20 21° SSW 05:52:43 38° W 05:56:50 10° NNW
Okean O Rocket 2.9 05:50:05 10° NNW 05:53:33 23° WNW 05:53:40 23° WNW
Cosmos 2154 Rocket 4.2 05:51:32 10° NNW 05:57:35 48° W 06:03:37 10° SSW
Abrixas rocket 2.6 05:55:02 12° NW 05:58:01 63° NE 06:01:20 10° ESE
PSLV R/B 3.6 05:54:19 10° N 05:58:39 60° WNW 06:02:29 13° SSW
Meteor 1-31 Rocket 3.6 05:55:31 10° NNE 05:59:13 50° E 06:02:56 10° S
PSLV R/B 3.3 05:59:33 29° WNW 06:01:05 59° SSW 06:04:25 10° SE
OAO 3 Rocket 3.2 05:59:11 25° WSW 06:02:00 74° SSE 06:06:44 10° ENE
Meteor 2-6 Rocket 4.4 05:56:16 10° S 06:02:13 87° E 06:08:05 10° N
ADEOS II 2.0 05:58:41 10° N 06:03:55 72° WNW 06:09:08 10° SSW
Meteor 2-10 Rocket 4.0 05:59:16 12° SSW 06:04:19 46° W 06:09:46 10° N
BREEZE-M DEB (TANK) 2.6 06:02:35 11° NW 06:04:47 69° NE 06:09:30 10° SE
Cosmos 2084 Rocket 3.1 06:02:30 19° SSW 06:05:21 80° WNW 06:09:13 10° NNE
Cosmos 1140 Rocket 4.0 06:04:28 19° SW 06:07:37 39° WNW 06:12:25 10° N
Okean-O 2.8 06:04:04 10° N 06:08:23 52° WNW 06:12:40 10° SSW
deb Centaur AC-2 3.9 06:05:38 21° W 06:08:38 88° S 06:12:57 10° E
Timation 2 Rocket 4.2 06:05:32 14° SW 06:10:39 49° WNW 06:16:31 10° N
Meteor PRIRODA 3.7 06:08:12 10° N 06:11:55 57° WNW 06:15:36 10° SSW
Meteor 1-20 Rocket 4.2 06:10:00 10° NNW 06:15:45 74° W 06:21:33 10° S
Meteor 1-25 Rocket 4.2 06:11:00 10° NNW 06:16:28 60° W 06:21:58 10° S
Cosmos 2151 Rocket 3.8 06:12:34 10° NNW 06:16:46 45° W 06:20:57 10° SSW
Cosmos 614 Rocket 4.2 06:12:30 10° SW 06:17:25 48° WNW 06:22:20 10° N
SL-8 Rocket 3.9 06:11:20 10° N 06:17:33 77° W 06:23:48 10° S
SWIFT 4.5 06:18:17 10° SSW 06:20:58 16° S 06:23:38 10° SE
ADEOS Rocket 3.8 06:14:47 10° N 06:22:12 50° WNW 06:29:21 10° SW
COBE Rocket 4.2 06:17:16 10° NNE 06:22:23 76° E 06:27:20 10° S
Geosat 4.4 06:23:31 10° N 06:28:17 44° WNW 06:33:01 10° SW
Cosmos 2278 3.7 06:22:41 10° NNW 06:28:18 61° WSW 06:33:54 10° S
SEDSat Delta rocket 3.0 06:26:50 12° WSW 06:30:27 64° SSE 06:34:43 10° E
Delta 168 4.4 06:24:22 12° WSW 06:31:35 49° S 06:36:37 10° E
Okean 1 Rocket 3.1 06:31:39 10° N 06:36:02 89° WSW 06:40:25 10° S
Ariane Rocket 3.3 06:32:11 10° NNE 06:37:16 76° ESE 06:42:21 10° S
Cosmos 1400 Rocket 2.7 06:33:42 10° NNW 06:37:32 60° W 06:41:20 10° S
Cosmos 1674 Rocket 4.5 06:33:58 10° SW 06:37:47 28° W 06:41:35 10° NNW
Cosmos 1656 3.9 06:32:51 10° NNW 06:38:17 75° ENE 06:43:41 10° SSE
Meteor 2-19 Rocket 4.5 06:32:44 10° N 06:38:52 85° W 06:44:59 10° S
Okean 3 3.4 06:38:48 10° SSW 06:43:02 70° W 06:47:15 10° N
NAVSTAR 52 R/B(PAM-D 3.6 06:41:31 10° W 06:43:06 28° SSW 06:44:35 10° SSE
Cosmos 2369 3.9 06:38:41 10° NNW 06:44:10 49° WSW 06:49:39 10° S
SJ-6F 4.4 06:40:24 10° N 06:44:28 68° WNW 06:48:32 10° SSW
Cosmos 1238 Rocket 2.5 06:41:10 10° S 06:44:30 83° W 06:48:31 10° N
Cosmos 1606 3.7 06:41:59 10° SW 06:45:22 28° W 06:48:46 10° NNW
